Weather History for KNGP - March, 2013

Change the Weather History Date:

Friday, March 8, 2013

  Actual Average Record
Temperature  
Mean Temperature 70 °F -  
Max Temperature 75 °F 69 °F 80 °F (2009)
Min Temperature 66 °F 56 °F 41 °F (2008)
Cooling Degree Days 6    
Growing Degree Days 20 (Base 50)    
Moisture  
Dew Point 64 °F    
Average Humidity 79    
Maximum Humidity 87    
Minimum Humidity 69    
Precipitation  
Precipitation 0.00 in - - ()
Sea Level Pressure  
Sea Level Pressure 30.07 in    
Wind  
Wind Speed 14 mph (SE)    
Max Wind Speed 22 mph    
Max Gust Speed 28 mph    
Visibility 10 miles    
Events      
Averages and records for this station are not official NWS values.
T = Trace of Precipitation, MM = Missing Value Source: NWS Daily Summary

Daily Weather History Graph

Daily Weather History Graph

Search for Another Location

Airport or City:

Trip Planner

Search our weather history database for the weather conditions in past years. The results will help you decide how hot, cold, wet, or windy it might be!

Date:

Astronomy

Mar. 08, 2013 Rise Set
Actual Time 6:45 AM CST 6:34 PM CST
Civil Twilight 6:22 AM CST 6:57 PM CST
Nautical Twilight 5:55 AM CST 7:24 PM CST
Astronomical Twilight 5:28 AM CST 7:51 PM CST
Moon 4:17 AM CST (3/8) 3:42 PM CST (3/8)
Length of Visible Light 12h 34m
Length of Day
11h 48m
Waning Crescent, 11% of the Moon is Illuminated
Mar 8
Waning Crescent
Mar 11
New
Mar 19
First Quarter
Mar 27
Full
Apr 2
Last Quarter

Hourly Weather History & Observations

Time (CST) Temp. Dew Point Humidity Pressure Visibility Wind Dir Wind Speed Gust Speed Precip Events Conditions
12:56 AM 66.9 °F 63.0 °F 87% 30.12 in 10.0 mi SE 10.4 mph - N/A   Clear
1:56 AM 68.0 °F 63.0 °F 84% 30.09 in 10.0 mi SE 12.7 mph - N/A   Mostly Cloudy
2:56 AM 68.0 °F 64.0 °F 87% 30.08 in 10.0 mi SE 11.5 mph - N/A   Mostly Cloudy
3:56 AM 66.9 °F 63.0 °F 87% 30.06 in 10.0 mi SE 10.4 mph - N/A   Scattered Clouds
4:56 AM 69.1 °F 64.0 °F 84% 30.05 in 10.0 mi SE 13.8 mph - N/A   Overcast
5:56 AM 69.1 °F 64.0 °F 84% 30.08 in 10.0 mi SE 12.7 mph - N/A   Overcast
6:56 AM 69.1 °F 64.0 °F 84% 30.08 in 10.0 mi SE 13.8 mph - N/A   Overcast
7:56 AM 70.0 °F 64.0 °F 81% 30.09 in 10.0 mi SE 11.5 mph - N/A   Overcast
8:56 AM 71.1 °F 64.9 °F 81% 30.09 in 10.0 mi SE 18.4 mph 26.5 mph N/A   Overcast
9:56 AM 72.0 °F 64.9 °F 78% 30.10 in 10.0 mi SE 13.8 mph - N/A   Overcast
10:27 AM 71.6 °F 64.4 °F 78% 30.11 in 10.0 mi SE 15.0 mph - N/A   Mostly Cloudy
10:56 AM 73.9 °F 66.0 °F 76% 30.12 in 10.0 mi SE 13.8 mph - N/A   Overcast
11:44 AM 75.2 °F 66.2 °F 73% 30.10 in 10.0 mi SE 18.4 mph - N/A   Overcast
11:56 AM 75.0 °F 66.0 °F 73% 30.10 in 10.0 mi SE 21.9 mph - N/A   Overcast
12:56 PM 75.9 °F 66.0 °F 71% 30.06 in 10.0 mi ESE 18.4 mph 26.5 mph N/A   Mostly Cloudy
1:56 PM 75.9 °F 66.0 °F 71% 30.04 in 10.0 mi SE 19.6 mph 26.5 mph N/A   Overcast
2:56 PM 75.9 °F 64.9 °F 69% 30.04 in 10.0 mi SE 20.7 mph - N/A   Overcast
3:56 PM 73.9 °F 64.0 °F 71% 30.05 in 10.0 mi SE 19.6 mph 25.3 mph N/A   Overcast
4:56 PM 71.1 °F 64.0 °F 78% 30.04 in 10.0 mi ESE 17.3 mph - N/A   Overcast
5:56 PM 71.1 °F 64.0 °F 78% 30.05 in 10.0 mi ESE 18.4 mph 23.0 mph N/A   Overcast
6:56 PM 70.0 °F 64.0 °F 81% 30.06 in 10.0 mi SE 12.7 mph - N/A   Overcast
7:56 PM 70.0 °F 64.0 °F 81% 30.03 in 10.0 mi SE 16.1 mph - N/A   Clear
8:56 PM 70.0 °F 64.0 °F 81% 30.04 in 10.0 mi SE 16.1 mph - N/A   Clear
9:56 PM 71.1 °F 64.0 °F 78% 30.03 in 10.0 mi SE 17.3 mph 27.6 mph N/A   Clear
10:56 PM 70.0 °F 64.0 °F 81% 30.02 in 10.0 mi SE 15.0 mph - N/A   Clear
11:56 PM 70.0 °F 64.9 °F 84% 30.01 in 10.0 mi SE 15.0 mph - N/A   Mostly Cloudy